{"data":{"norad_id":59441,"intl_designator":"2024-065W","name":"STARLINK-31693","alt_names":[],"object_type":"PAYLOAD","status":"ACTIVE","operator":null,"country":"US","launch_date":"2024-04-07","launch_site_code":"AFWTR","launch_vehicle":null,"mission":null,"orbit_class":"UNKNOWN","rcs_meters":null,"size_class":null,"mass_kg":null,"dimensions":null,"purposes":["comms"],"wikipedia_slug":null,"has_3d_model":false,"image_url":null,"decayed_at":null,"tle_current":{"epoch":"2026-09-21T21:56:20.256576Z","epoch_age_seconds":43158,"freshness":"FRESH","line1":"1 59441U 24065W   26264.91412334  .00001966  00000+0  69307-4 0  9997","line2":"2 59441  53.1584  87.2932 0001179  84.2084 275.9053 15.34392823139011","mean_motion":15.34392823,"eccentricity":0.0001179,"inclination_deg":53.1584,"raan_deg":87.2932,"arg_perigee_deg":84.2084,"mean_anomaly_deg":275.9053,"bstar":6.9307e-5,"rev_number":13901,"period_min":93.848197046735,"perigee_km":461.91803426742,"apogee_km":463.53110942606,"semimajor_km":6840.8615718467,"source":"CELESTRAK","updated_at":"2026-09-22T09:00:48.942985Z"}}}